Minneapolis, MN

11:16 PM CDT on September 23, 2017 (GMT -0500)
Minneapolis-Saint Paul International

Weather History for KMSP - May, 2014

Change the Weather History Date:

Tuesday, May 13, 2014

  Actual Average Record
Temperature  
Mean Temperature 48 °F 58 °F  
Max Temperature 53 °F 69 °F 92 °F (2007)
Min Temperature 43 °F 48 °F 29 °F (1953)
Degree Days  
Heating Degree Days 17 8  
Month to date heating degree days 151 120  
Since 1 July heating degree days 8483 7438  
Cooling Degree Days 0 1  
Month to date cooling degree days 0 11  
Year to date cooling degree days 0 16  
Moisture  
Dew Point 39 °F    
Average Humidity 74    
Maximum Humidity 93    
Minimum Humidity 54    
Precipitation  
Precipitation 0.00 in 0.10 in 0.98 in (1962)
Month to date precipitation 1.63 1.42  
Year to date precipitation 11.55 7.64  
Snow  
Snow 0.00 in 0.00 in T in (1902)
Month to date snowfall 0.0 0.0  
Since 1 July snowfall 69.8 54.4  
Snow Depth 0.00 in    
Sea Level Pressure  
Sea Level Pressure 30.02 in    
Wind  
Wind Speed 13 mph (WNW)    
Max Wind Speed 21 mph    
Max Gust Speed 27 mph    
Visibility 10 miles    
Events      
T = Trace of Precipitation, MM = Missing Value Source: NWS Daily Summary

Daily Weather History Graph

Daily Weather History Graph

Search for Another Location

Airport or City:

Trip Planner

Search our weather history database for the weather conditions in past years. The results will help you decide how hot, cold, wet, or windy it might be!

Date:

Astronomy

May. 13, 2014 Rise Set
Actual Time 5:46 AM CDT 8:32 PM CDT
Civil Twilight 5:12 AM CDT 9:06 PM CDT
Nautical Twilight 4:29 AM CDT 9:49 PM CDT
Astronomical Twilight 3:40 AM CDT 10:39 PM CDT
Moon 7:31 PM CDT (5/13) 5:07 AM CDT (5/13)
Length of Visible Light 15h 54m
Length of Day
14h 46m
Waxing Gibbous, 99% of the Moon is Illuminated
May 13
Waxing Gibbous
May 14
Full
May 21
Last Quarter
May 28
New
Jun 5
First Quarter

Hourly Weather History & Observations

Time (CDT) Temp. Windchill Dew Point Humidity Pressure Visibility Wind Dir Wind Speed Gust Speed Precip Events Conditions
12:53 AM 48.2 °F - 46.4 °F 93% 29.82 in 10.0 mi West 11.5 mph - N/A   Overcast
1:53 AM 48.9 °F - 46.0 °F 90% 29.83 in 10.0 mi West 10.4 mph - N/A   Overcast
2:42 AM 48.0 °F - 44.1 °F 86% 29.85 in 10.0 mi WNW 13.8 mph - N/A   Overcast
2:53 AM 48.0 °F - 43.0 °F 83% 29.86 in 10.0 mi West 15.0 mph - N/A   Overcast
3:53 AM 48.0 °F - 42.1 °F 80% 29.88 in 10.0 mi West 11.5 mph - N/A   Overcast
4:53 AM 46.9 °F - 42.1 °F 83% 29.89 in 10.0 mi West 16.1 mph - N/A   Overcast
5:53 AM 46.0 °F 39.6 °F 39.9 °F 79% 29.91 in 10.0 mi WNW 15.0 mph 23.0 mph N/A   Overcast
6:39 AM 46.0 °F 40.2 °F 39.9 °F 79% 29.93 in 10.0 mi West 12.7 mph - N/A   Overcast
6:53 AM 46.0 °F 39.6 °F 39.9 °F 79% 29.96 in 10.0 mi WNW 15.0 mph - N/A   Overcast
7:53 AM 46.4 °F 40.7 °F 39.2 °F 76% 29.95 in 10.0 mi WNW 12.7 mph - N/A   Overcast
8:53 AM 46.0 °F 39.9 °F 39.0 °F 76% 29.99 in 10.0 mi NW 13.8 mph - N/A   Overcast
9:53 AM 46.9 °F - 37.9 °F 71% 30.01 in 10.0 mi WNW 11.5 mph 21.9 mph N/A   Overcast
10:53 AM 46.4 °F 41.1 °F 37.4 °F 71% 30.02 in 10.0 mi NW 11.5 mph 20.7 mph N/A   Overcast
11:33 AM 46.9 °F - 37.9 °F 71% 30.04 in 10.0 mi WNW 11.5 mph - N/A   Overcast
11:53 AM 48.9 °F - 37.9 °F 66% 30.07 in 10.0 mi NW 15.0 mph 21.9 mph N/A   Overcast
12:05 PM 48.9 °F - 37.9 °F 66% 30.05 in 10.0 mi NW 16.1 mph 20.7 mph N/A   Overcast
12:53 PM 51.1 °F - 37.9 °F 61% 30.08 in 10.0 mi WNW 12.7 mph - N/A   Overcast
1:53 PM 50.0 °F - 39.9 °F 68% 30.09 in 10.0 mi WNW 16.1 mph 23.0 mph N/A   Overcast
2:53 PM 51.1 °F - 37.9 °F 61% 30.11 in 10.0 mi WNW 17.3 mph 26.5 mph N/A   Overcast
3:53 PM 51.1 °F - 37.9 °F 61% 30.11 in 10.0 mi WNW 16.1 mph - N/A   Overcast
4:53 PM 51.1 °F - 37.9 °F 61% 30.13 in 10.0 mi WNW 13.8 mph 21.9 mph N/A   Overcast
5:53 PM 51.1 °F - 36.0 °F 56% 30.13 in 10.0 mi WNW 16.1 mph - N/A   Overcast
6:53 PM 51.1 °F - 35.1 °F 54% 30.14 in 10.0 mi WNW 16.1 mph 24.2 mph N/A   Mostly Cloudy
7:53 PM 50.0 °F - 35.1 °F 57% 30.15 in 10.0 mi WNW 17.3 mph - N/A   Scattered Clouds
8:53 PM 48.9 °F - 35.1 °F 59% 30.17 in 10.0 mi West 9.2 mph - N/A   Scattered Clouds
9:53 PM 46.9 °F - 35.1 °F 63% 30.19 in 10.0 mi WNW 11.5 mph - N/A   Partly Cloudy
10:53 PM 45.0 °F 41.2 °F 35.1 °F 68% 30.20 in 10.0 mi West 6.9 mph - N/A   Clear
11:53 PM 45.0 °F 41.2 °F 35.1 °F 68% 30.20 in 10.0 mi West 6.9 mph - N/A   Clear